Time,TemperatureF,DewpointF,PressureIn,WindDirection,WindDirectionDegrees,WindSpeedMPH,WindSpeedGustMPH,Humidity,HourlyPrecipIn,Conditions,Clouds,dailyrainin,SoftwareType,DateUTC
2013-11-22 00:01:00,12.6,-4.3,30.44,WSW,238,0.0,0.0,46,0.00,,---,0.00,VWS V14.01,2013-11-22 07:01:00,
2013-11-22 00:06:00,12.6,-4.3,30.44,WSW,239,0.0,0.0,46,0.00,,---,0.00,VWS V14.01,2013-11-22 07:06:00,
2013-11-22 00:11:00,12.6,-4.3,30.44,SSW,205,0.0,0.0,46,0.00,,---,0.00,VWS V14.01,2013-11-22 07:11:00,
2013-11-22 00:16:00,12.2,-4.6,30.44,WSW,247,0.0,0.0,46,0.00,,---,0.00,VWS V14.01,2013-11-22 07:16:00,
2013-11-22 00:21:00,11.8,-4.9,30.44,WSW,247,0.0,0.0,46,0.00,,---,0.00,VWS V14.01,2013-11-22 07:21:00,
2013-11-22 00:26:00,11.5,-5.3,30.44,WSW,247,0.0,0.0,46,0.00,,---,0.00,VWS V14.01,2013-11-22 07:26:00,
2013-11-22 00:31:00,11.3,-5.4,30.44,WSW,247,0.0,0.0,46,0.00,,---,0.00,VWS V14.01,2013-11-22 07:31:00,
2013-11-22 00:36:00,11.3,-5.4,30.44,WSW,253,0.0,0.0,46,0.00,,---,0.00,VWS V14.01,2013-11-22 07:36:00,
2013-11-22 00:41:00,11.3,-5.4,30.44,WSW,253,0.0,0.0,46,0.00,,---,0.00,VWS V14.01,2013-11-22 07:41:00,
2013-11-22 00:46:00,11.3,-5.4,30.44,WSW,253,0.0,0.0,46,0.00,,---,0.00,VWS V14.01,2013-11-22 07:46:00,
2013-11-22 00:51:00,11.1,-5.6,30.44,WSW,253,0.0,0.0,46,0.00,,---,0.00,VWS V14.01,2013-11-22 07:51:00,
2013-11-22 00:56:00,10.9,-5.8,30.44,WSW,253,0.0,0.0,46,0.00,,---,0.00,VWS V14.01,2013-11-22 07:56:00,
2013-11-22 01:01:00,11.1,-5.6,30.44,SSW,196,0.0,0.0,46,0.00,,---,0.00,VWS V14.01,2013-11-22 08:01:00,
2013-11-22 01:06:00,11.5,-5.3,30.44,NW,319,3.1,4.0,46,0.00,,---,0.00,VWS V14.01,2013-11-22 08:06:00,
2013-11-22 01:11:00,11.7,-5.1,30.44,WSW,245,2.7,4.0,46,0.00,,---,0.00,VWS V14.01,2013-11-22 08:11:00,
2013-11-22 01:16:00,11.8,-4.9,30.44,WSW,239,2.2,2.7,46,0.00,,---,0.00,VWS V14.01,2013-11-22 08:16:00,
2013-11-22 01:21:00,11.8,-4.9,30.44,SSW,210,0.0,3.1,46,0.00,,---,0.00,VWS V14.01,2013-11-22 08:21:00,
2013-11-22 01:26:00,11.7,-5.1,30.41,SSW,210,0.0,3.1,46,0.00,,---,0.00,VWS V14.01,2013-11-22 08:26:00,
2013-11-22 01:31:00,11.5,-5.3,30.41,SSW,210,0.0,0.0,46,0.00,,---,0.00,VWS V14.01,2013-11-22 08:31:00,
2013-11-22 01:36:00,11.3,-5.4,30.41,SW,229,0.0,0.0,46,0.00,,---,0.00,VWS V14.01,2013-11-22 08:36:00,
2013-11-22 01:41:00,10.9,-5.8,30.41,WSW,246,0.0,0.0,46,0.00,,---,0.00,VWS V14.01,2013-11-22 08:41:00,
2013-11-22 01:46:00,10.8,-5.9,30.41,WSW,250,0.0,0.0,46,0.00,,---,0.00,VWS V14.01,2013-11-22 08:46:00,
2013-11-22 01:51:00,10.9,-5.8,30.41,WSW,250,0.0,0.0,46,0.00,,---,0.00,VWS V14.01,2013-11-22 08:51:00,
2013-11-22 01:56:00,11.1,-5.6,30.41,NW,308,0.0,3.6,46,0.00,,---,0.00,VWS V14.01,2013-11-22 08:56:00,
2013-11-22 02:01:00,11.1,-5.6,30.41,WNW,295,0.0,2.7,46,0.00,,---,0.00,VWS V14.01,2013-11-22 09:01:00,
2013-11-22 02:06:00,11.3,-5.4,30.41,WNW,283,0.0,2.7,46,0.00,,---,0.00,VWS V14.01,2013-11-22 09:06:00,
2013-11-22 02:11:00,11.8,-4.9,30.44,WNW,283,0.0,2.7,46,0.00,,---,0.00,VWS V14.01,2013-11-22 09:11:00,
2013-11-22 02:16:00,11.8,-4.9,30.44,WNW,301,0.0,0.0,46,0.00,,---,0.00,VWS V14.01,2013-11-22 09:16:00,
2013-11-22 02:21:00,11.3,-5.4,30.44,WNW,301,0.0,0.0,46,0.00,,---,0.00,VWS V14.01,2013-11-22 09:21:00,
2013-11-22 02:26:00,11.1,-5.6,30.44,WSW,245,0.0,0.0,46,0.00,,---,0.00,VWS V14.01,2013-11-22 09:26:00,
2013-11-22 02:31:00,11.3,-5.4,30.44,West,276,0.0,0.0,46,0.00,,---,0.00,VWS V14.01,2013-11-22 09:31:00,
2013-11-22 02:36:00,11.5,-5.3,30.44,West,276,0.0,0.0,46,0.00,,---,0.00,VWS V14.01,2013-11-22 09:36:00,
2013-11-22 02:41:00,11.3,-5.4,30.44,West,276,0.0,0.0,46,0.00,,---,0.00,VWS V14.01,2013-11-22 09:41:00,
2013-11-22 02:46:00,11.1,-5.6,30.44,West,276,0.0,0.0,46,0.00,,---,0.00,VWS V14.01,2013-11-22 09:46:00,
2013-11-22 02:51:00,10.9,-5.8,30.44,West,276,0.0,0.0,46,0.00,,---,0.00,VWS V14.01,2013-11-22 09:51:00,
2013-11-22 02:56:00,10.8,-5.9,30.44,West,276,0.0,0.0,46,0.00,,---,0.00,VWS V14.01,2013-11-22 09:56:00,
2013-11-22 03:01:00,10.8,-5.9,30.44,West,276,0.0,0.0,46,0.00,,---,0.00,VWS V14.01,2013-11-22 10:01:00,
2013-11-22 03:06:00,10.9,-5.8,30.44,West,276,0.0,0.0,46,0.00,,---,0.00,VWS V14.01,2013-11-22 10:06:00,
2013-11-22 03:11:00,10.8,-5.9,30.44,West,276,0.0,0.0,46,0.00,,---,0.00,VWS V14.01,2013-11-22 10:11:00,
2013-11-22 03:16:00,10.4,-6.3,30.44,West,276,0.0,0.0,46,0.00,,---,0.00,VWS V14.01,2013-11-22 10:16:00,
2013-11-22 03:21:00,10.2,-6.4,30.44,West,279,0.0,0.0,46,0.00,,---,0.00,VWS V14.01,2013-11-22 10:21:00,
2013-11-22 03:26:00,10.0,-6.6,30.44,West,279,0.0,0.0,46,0.00,,---,0.00,VWS V14.01,2013-11-22 10:26:00,
2013-11-22 03:31:00,10.0,-6.6,30.44,West,279,0.0,0.0,46,0.00,,---,0.00,VWS V14.01,2013-11-22 10:31:00,
2013-11-22 03:36:00,10.2,-6.4,30.44,West,262,0.0,0.0,46,0.00,,---,0.00,VWS V14.01,2013-11-22 10:36:00,
2013-11-22 03:41:00,10.0,-6.6,30.44,West,262,0.0,0.0,46,0.00,,---,0.00,VWS V14.01,2013-11-22 10:41:00,
2013-11-22 03:46:00,9.7,-6.9,30.44,West,262,0.0,0.0,46,0.00,,---,0.00,VWS V14.01,2013-11-22 10:46:00,
2013-11-22 03:51:00,10.0,-6.6,30.44,West,262,0.0,0.0,46,0.00,,---,0.00,VWS V14.01,2013-11-22 10:51:00,
2013-11-22 03:56:00,9.9,-6.8,30.44,West,261,0.0,0.0,46,0.00,,---,0.00,VWS V14.01,2013-11-22 10:56:00,
2013-11-22 04:01:00,9.7,-6.9,30.44,West,262,0.0,0.0,46,0.00,,---,0.00,VWS V14.01,2013-11-22 11:01:00,
2013-11-22 04:06:00,9.9,-6.8,30.44,SW,214,0.0,0.0,46,0.00,,---,0.00,VWS V14.01,2013-11-22 11:06:00,
2013-11-22 04:11:00,10.0,-6.6,30.44,SSW,194,2.2,3.6,46,0.00,,---,0.00,VWS V14.01,2013-11-22 11:11:00,
2013-11-22 04:16:00,9.7,-6.9,30.44,SSW,194,0.0,0.0,46,0.00,,---,0.00,VWS V14.01,2013-11-22 11:16:00,
2013-11-22 04:21:00,9.7,-6.9,30.44,SSW,194,0.0,0.0,46,0.00,,---,0.00,VWS V14.01,2013-11-22 11:21:00,
2013-11-22 04:26:00,10.0,-6.6,30.44,SSW,200,0.0,0.0,46,0.00,,---,0.00,VWS V14.01,2013-11-22 11:26:00,
2013-11-22 04:31:00,9.7,-6.9,30.44,SSW,200,0.0,0.0,46,0.00,,---,0.00,VWS V14.01,2013-11-22 11:31:00,
2013-11-22 04:36:00,9.7,-6.9,30.44,SSW,200,0.0,0.0,46,0.00,,---,0.00,VWS V14.01,2013-11-22 11:36:00,
2013-11-22 04:41:00,9.3,-7.3,30.44,SSW,200,0.0,0.0,46,0.00,,---,0.00,VWS V14.01,2013-11-22 11:41:00,
2013-11-22 04:46:00,9.5,-7.1,30.44,South,190,0.0,0.0,46,0.00,,---,0.00,VWS V14.01,2013-11-22 11:46:00,
2013-11-22 04:51:00,9.5,-7.1,30.44,South,190,0.0,0.0,46,0.00,,---,0.00,VWS V14.01,2013-11-22 11:51:00,
2013-11-22 04:56:00,9.5,-7.1,30.44,South,190,0.0,0.0,46,0.00,,---,0.00,VWS V14.01,2013-11-22 11:56:00,
2013-11-22 05:01:00,9.1,-7.4,30.44,South,190,0.0,0.0,46,0.00,,---,0.00,VWS V14.01,2013-11-22 12:01:00,
2013-11-22 05:06:00,9.1,-7.4,30.44,South,190,0.0,0.0,46,0.00,,---,0.00,VWS V14.01,2013-11-22 12:06:00,
2013-11-22 05:11:00,9.5,-7.1,30.47,South,190,0.0,0.0,46,0.00,,---,0.00,VWS V14.01,2013-11-22 12:11:00,
2013-11-22 05:16:00,9.5,-7.1,30.47,South,190,0.0,0.0,46,0.00,,---,0.00,VWS V14.01,2013-11-22 12:16:00,
2013-11-22 05:21:00,9.3,-7.3,30.47,South,190,0.0,0.0,46,0.00,,---,0.00,VWS V14.01,2013-11-22 12:21:00,
2013-11-22 05:26:00,9.3,-7.3,30.47,SSW,196,0.0,0.0,46,0.00,,---,0.00,VWS V14.01,2013-11-22 12:26:00,
2013-11-22 05:31:00,9.3,-7.3,30.47,SSW,196,0.0,0.0,46,0.00,,---,0.00,VWS V14.01,2013-11-22 12:31:00,
2013-11-22 05:36:00,9.1,-7.4,30.47,SSW,196,0.0,0.0,46,0.00,,---,0.00,VWS V14.01,2013-11-22 12:36:00,
2013-11-22 05:41:00,9.1,-7.4,30.47,SSW,197,0.0,0.0,46,0.00,,---,0.00,VWS V14.01,2013-11-22 12:41:00,
2013-11-22 05:46:00,9.1,-7.4,30.47,SSW,197,0.0,0.0,46,0.00,,---,0.00,VWS V14.01,2013-11-22 12:46:00,
2013-11-22 05:51:00,9.0,-7.6,30.47,SSW,197,0.0,0.0,46,0.00,,---,0.00,VWS V14.01,2013-11-22 12:51:00,
2013-11-22 05:56:00,8.8,-7.8,30.47,SSW,197,0.0,0.0,46,0.00,,---,0.00,VWS V14.01,2013-11-22 12:56:00,
2013-11-22 06:01:00,9.1,-7.4,30.47,SSW,197,0.0,0.0,46,0.00,,---,0.00,VWS V14.01,2013-11-22 13:01:00,
2013-11-22 06:06:00,9.1,-7.4,30.47,SSW,197,0.0,0.0,46,0.00,,---,0.00,VWS V14.01,2013-11-22 13:06:00,
2013-11-22 06:11:00,9.1,-7.4,30.47,WNW,296,0.0,4.0,46,0.00,,---,0.00,VWS V14.01,2013-11-22 13:11:00,
2013-11-22 06:16:00,9.3,-7.3,30.47,WNW,296,0.0,0.0,46,0.00,,---,0.00,VWS V14.01,2013-11-22 13:16:00,
2013-11-22 06:21:00,9.3,-7.3,30.47,WNW,296,0.0,0.0,46,0.00,,---,0.00,VWS V14.01,2013-11-22 13:21:00,
2013-11-22 06:26:00,9.1,-7.4,30.47,WNW,296,0.0,0.0,46,0.00,,---,0.00,VWS V14.01,2013-11-22 13:26:00,
2013-11-22 06:31:00,9.0,-7.6,30.47,WNW,296,0.0,0.0,46,0.00,,---,0.00,VWS V14.01,2013-11-22 13:31:00,
2013-11-22 06:36:00,8.8,-7.8,30.47,WNW,296,0.0,0.0,46,0.00,,---,0.00,VWS V14.01,2013-11-22 13:36:00,
2013-11-22 06:41:00,8.8,-7.8,30.47,WNW,296,0.0,0.0,46,0.00,,---,0.00,VWS V14.01,2013-11-22 13:41:00,
2013-11-22 06:46:00,8.6,-7.9,30.47,SW,230,0.0,0.0,46,0.00,,---,0.00,VWS V14.01,2013-11-22 13:46:00,
2013-11-22 06:51:00,9.0,-7.6,30.47,WSW,242,0.0,0.0,46,0.00,,---,0.00,VWS V14.01,2013-11-22 13:51:00,
2013-11-22 06:56:00,9.1,-7.4,30.47,WSW,242,0.0,0.0,46,0.00,,---,0.00,VWS V14.01,2013-11-22 13:56:00,
2013-11-22 07:01:00,9.0,-7.6,30.47,WSW,242,0.0,0.0,46,0.00,,---,0.00,VWS V14.01,2013-11-22 14:01:00,
2013-11-22 07:06:00,8.8,-7.8,30.47,SE,124,0.0,0.0,46,0.00,,---,0.00,VWS V14.01,2013-11-22 14:06:00,
2013-11-22 07:11:00,8.8,-7.8,30.47,SE,124,0.0,0.0,46,0.00,,---,0.00,VWS V14.01,2013-11-22 14:11:00,
2013-11-22 07:16:00,8.6,-7.9,30.47,SSW,200,0.0,0.0,46,0.00,,---,0.00,VWS V14.01,2013-11-22 14:16:00,
2013-11-22 07:21:00,8.6,-7.9,30.47,SSW,200,0.0,0.0,46,0.00,,---,0.00,VWS V14.01,2013-11-22 14:21:00,
2013-11-22 07:26:00,8.6,-7.9,30.47,SSE,147,0.0,0.0,46,0.00,,---,0.00,VWS V14.01,2013-11-22 14:26:00,
2013-11-22 07:31:00,8.4,-8.1,30.47,SSE,147,0.0,0.0,46,0.00,,---,0.00,VWS V14.01,2013-11-22 14:31:00,
2013-11-22 07:36:00,8.4,-8.1,30.47,SSE,147,0.0,0.0,46,0.00,,---,0.00,VWS V14.01,2013-11-22 14:36:00,
2013-11-22 07:41:00,8.2,-8.3,30.47,SSE,147,0.0,0.0,46,0.00,,---,0.00,VWS V14.01,2013-11-22 14:41:00,
2013-11-22 07:46:00,8.1,-8.4,30.47,SSE,147,0.0,0.0,46,0.00,,---,0.00,VWS V14.01,2013-11-22 14:46:00,
2013-11-22 07:51:00,7.9,-8.6,30.47,SSE,147,0.0,0.0,46,0.00,,---,0.00,VWS V14.01,2013-11-22 14:51:00,
2013-11-22 07:56:00,8.1,-8.4,30.47,SSE,147,0.0,0.0,46,0.00,,---,0.00,VWS V14.01,2013-11-22 14:56:00,
2013-11-22 08:01:00,8.1,-8.4,30.47,SSE,147,0.0,0.0,46,0.00,,---,0.00,VWS V14.01,2013-11-22 15:01:00,
2013-11-22 08:06:00,8.4,-8.1,30.47,SSE,147,0.0,0.0,46,0.00,,---,0.00,VWS V14.01,2013-11-22 15:06:00,
2013-11-22 08:11:00,8.4,-8.1,30.50,SSE,147,0.0,0.0,46,0.00,,---,0.00,VWS V14.01,2013-11-22 15:11:00,
2013-11-22 08:16:00,9.1,-7.4,30.50,SSE,160,0.0,0.0,46,0.00,,---,0.00,VWS V14.01,2013-11-22 15:16:00,
2013-11-22 08:21:00,10.6,-6.1,30.50,SSE,160,0.0,0.0,46,0.00,,---,0.00,VWS V14.01,2013-11-22 15:21:00,
2013-11-22 08:26:00,11.8,-4.9,30.50,SSE,160,0.0,0.0,46,0.00,,---,0.00,VWS V14.01,2013-11-22 15:26:00,
2013-11-22 08:31:00,13.3,-3.6,30.50,SSE,160,0.0,0.0,46,0.00,,---,0.00,VWS V14.01,2013-11-22 15:31:00,
2013-11-22 08:36:00,14.4,2.7,30.50,SSE,160,0.0,0.0,59,0.00,,---,0.00,VWS V14.01,2013-11-22 15:36:00,
2013-11-22 08:41:00,15.4,3.7,30.50,SSE,160,0.0,0.0,59,0.00,,---,0.00,VWS V14.01,2013-11-22 15:41:00,
2013-11-22 08:45:00,16.5,4.7,30.50,SSE,160,0.0,0.0,59,0.00,,---,0.00,VWS V14.01,2013-11-22 15:45:00,
2013-11-22 08:50:00,17.1,4.8,30.50,SSE,160,0.0,0.0,58,0.00,,---,0.00,VWS V14.01,2013-11-22 15:50:00,
2013-11-22 08:55:00,17.6,5.3,30.50,SSE,160,0.0,0.0,58,0.00,,---,0.00,VWS V14.01,2013-11-22 15:55:00,
2013-11-22 09:00:00,19.2,6.9,30.50,SSE,160,0.0,0.0,58,0.00,,---,0.00,VWS V14.01,2013-11-22 16:00:00,
2013-11-22 09:05:00,20.3,7.9,30.50,SSE,160,0.0,0.0,58,0.00,,---,0.00,VWS V14.01,2013-11-22 16:05:00,
2013-11-22 09:10:00,21.2,8.7,30.50,SSE,160,0.0,0.0,58,0.00,,---,0.00,VWS V14.01,2013-11-22 16:10:00,
2013-11-22 09:15:00,21.6,8.7,30.50,SSE,160,0.0,0.0,57,0.00,,---,0.00,VWS V14.01,2013-11-22 16:15:00,
2013-11-22 09:20:00,21.9,9.0,30.50,SSE,160,0.0,0.0,57,0.00,,---,0.00,VWS V14.01,2013-11-22 16:20:00,
2013-11-22 09:25:00,22.5,9.5,30.50,SSE,160,0.0,0.0,57,0.00,,---,0.00,VWS V14.01,2013-11-22 16:25:00,
2013-11-22 09:30:00,23.2,9.8,30.50,SSE,160,0.0,0.0,56,0.00,,---,0.00,VWS V14.01,2013-11-22 16:30:00,
2013-11-22 09:35:00,23.9,10.5,30.50,SSE,160,0.0,0.0,56,0.00,,---,0.00,VWS V14.01,2013-11-22 16:35:00,
2013-11-22 09:40:00,24.1,9.0,30.50,SE,139,0.0,0.0,52,0.00,,---,0.00,VWS V14.01,2013-11-22 16:40:00,
2013-11-22 09:45:00,24.4,9.4,30.50,ENE,71,2.7,4.9,52,0.00,,---,0.00,VWS V14.01,2013-11-22 16:45:00,
2013-11-22 09:50:00,24.3,7.9,30.50,ENE,69,2.2,4.9,49,0.00,,---,0.00,VWS V14.01,2013-11-22 16:50:00,
2013-11-22 09:55:00,23.5,3.8,30.50,North,4,0.0,4.9,42,0.00,,---,0.00,VWS V14.01,2013-11-22 16:55:00,
2013-11-22 10:00:00,23.9,5.2,30.50,ENE,71,0.0,0.0,44,0.00,,---,0.00,VWS V14.01,2013-11-22 17:00:00,
2013-11-22 10:05:00,24.3,5.0,30.50,ENE,63,0.0,0.0,43,0.00,,---,0.00,VWS V14.01,2013-11-22 17:05:00,
2013-11-22 10:10:00,24.8,5.5,30.50,ENE,63,0.0,0.0,43,0.00,,---,0.00,VWS V14.01,2013-11-22 17:10:00,
2013-11-22 10:15:00,25.2,5.3,30.50,NE,39,0.0,0.0,42,0.00,,---,0.00,VWS V14.01,2013-11-22 17:15:00,
2013-11-22 10:20:00,25.2,4.8,30.50,NNE,18,0.0,0.0,41,0.00,,---,0.00,VWS V14.01,2013-11-22 17:20:00,
2013-11-22 10:25:00,25.5,5.1,30.50,North,357,0.0,0.0,41,0.00,,---,0.00,VWS V14.01,2013-11-22 17:25:00,
2013-11-22 10:30:00,25.5,5.1,30.50,North,357,0.0,0.0,41,0.00,,---,0.00,VWS V14.01,2013-11-22 17:30:00,
2013-11-22 10:35:00,25.3,4.4,30.50,North,5,0.0,0.0,40,0.00,,---,0.00,VWS V14.01,2013-11-22 17:35:00,
2013-11-22 10:40:00,26.1,5.6,30.50,NNE,25,0.0,0.0,41,0.00,,---,0.00,VWS V14.01,2013-11-22 17:40:00,
2013-11-22 10:45:00,26.8,5.7,30.50,NNE,27,2.2,2.7,40,0.00,,---,0.00,VWS V14.01,2013-11-22 17:45:00,
2013-11-22 10:50:00,27.3,6.7,30.50,ESE,104,2.7,4.0,41,0.00,,---,0.00,VWS V14.01,2013-11-22 17:50:00,
2013-11-22 10:55:00,27.7,7.1,30.50,East,86,0.0,4.0,41,0.00,,---,0.00,VWS V14.01,2013-11-22 17:55:00,
2013-11-22 11:00:00,27.9,6.7,30.50,East,84,0.0,0.0,40,0.00,,---,0.00,VWS V14.01,2013-11-22 18:00:00,
2013-11-22 11:05:00,28.6,7.9,30.50,East,81,3.1,3.1,41,0.00,,---,0.00,VWS V14.01,2013-11-22 18:05:00,
2013-11-22 11:10:00,29.5,8.7,30.50,East,88,0.0,3.1,41,0.00,,---,0.00,VWS V14.01,2013-11-22 18:10:00,
2013-11-22 11:15:00,29.8,8.5,30.50,SE,142,3.1,3.1,40,0.00,,---,0.00,VWS V14.01,2013-11-22 18:15:00,
2013-11-22 11:20:00,30.0,8.6,30.50,ENE,76,2.7,3.1,40,0.00,,---,0.00,VWS V14.01,2013-11-22 18:20:00,
2013-11-22 11:25:00,30.4,8.4,30.47,ENE,73,0.0,4.0,39,0.00,,---,0.00,VWS V14.01,2013-11-22 18:25:00,
2013-11-22 11:30:00,30.4,6.0,30.47,NE,47,0.0,0.0,35,0.00,,---,0.00,VWS V14.01,2013-11-22 18:30:00,
2013-11-22 11:35:00,30.4,6.0,30.47,ESE,108,3.6,3.6,35,0.00,,---,0.00,VWS V14.01,2013-11-22 18:35:00,
2013-11-22 11:40:00,30.6,6.8,30.47,East,84,0.0,3.6,36,0.00,,---,0.00,VWS V14.01,2013-11-22 18:40:00,
2013-11-22 11:45:00,31.5,7.6,30.47,East,85,3.6,3.6,36,0.00,,---,0.00,VWS V14.01,2013-11-22 18:45:00,
2013-11-22 11:50:00,32.0,7.5,30.47,East,87,4.0,4.0,35,0.00,,---,0.00,VWS V14.01,2013-11-22 18:50:00,
2013-11-22 11:55:00,31.8,6.7,30.47,ESE,102,3.6,4.0,34,0.00,,---,0.00,VWS V14.01,2013-11-22 18:55:00,
2013-11-22 12:00:00,32.2,7.0,30.47,ESE,107,0.0,0.0,34,0.00,,---,0.00,VWS V14.01,2013-11-22 19:00:00,
2013-11-22 12:05:00,32.9,7.6,30.47,SSE,161,2.7,2.7,34,0.00,,---,0.00,VWS V14.01,2013-11-22 19:05:00,
2013-11-22 12:10:00,32.9,7.0,30.47,WNW,298,0.0,3.1,33,0.00,,---,0.00,VWS V14.01,2013-11-22 19:10:00,
2013-11-22 12:15:00,32.2,5.7,30.47,North,353,0.0,0.0,32,0.00,,---,0.00,VWS V14.01,2013-11-22 19:15:00,
2013-11-22 12:20:00,32.4,5.8,30.47,North,353,0.0,0.0,32,0.00,,---,0.00,VWS V14.01,2013-11-22 19:20:00,
2013-11-22 12:25:00,33.1,6.4,30.47,East,86,3.1,3.6,32,0.00,,---,0.00,VWS V14.01,2013-11-22 19:25:00,
2013-11-22 12:30:00,33.1,5.8,30.47,North,4,0.0,0.0,31,0.00,,---,0.00,VWS V14.01,2013-11-22 19:30:00,
2013-11-22 12:35:00,33.3,5.9,30.47,NE,49,0.0,4.0,31,0.00,,---,0.00,VWS V14.01,2013-11-22 19:35:00,
2013-11-22 12:40:00,33.1,5.8,30.47,North,9,3.1,4.0,31,0.00,,---,0.00,VWS V14.01,2013-11-22 19:40:00,
2013-11-22 12:45:00,32.2,5.0,30.47,North,7,3.6,3.6,31,0.00,,---,0.00,VWS V14.01,2013-11-22 19:45:00,
2013-11-22 12:50:00,31.6,4.5,30.47,NNE,20,0.0,4.9,31,0.00,,---,0.00,VWS V14.01,2013-11-22 19:50:00,
2013-11-22 12:55:00,32.5,5.3,30.44,ENE,63,4.0,4.9,31,0.00,,---,0.00,VWS V14.01,2013-11-22 19:55:00,
2013-11-22 13:00:00,33.1,5.8,30.44,NE,41,0.0,2.7,31,0.00,,---,0.00,VWS V14.01,2013-11-22 20:00:00,
2013-11-22 13:05:00,33.4,6.1,30.44,ENE,66,3.1,4.0,31,0.00,,---,0.00,VWS V14.01,2013-11-22 20:05:00,
2013-11-22 13:10:00,34.0,6.5,30.44,East,86,2.2,4.0,31,0.00,,---,0.00,VWS V14.01,2013-11-22 20:10:00,
2013-11-22 13:15:00,34.2,6.7,30.44,North,353,2.2,2.2,31,0.00,,---,0.00,VWS V14.01,2013-11-22 20:15:00,
2013-11-22 13:20:00,33.8,6.4,30.44,ENE,68,3.1,3.6,31,0.00,,---,0.00,VWS V14.01,2013-11-22 20:20:00,
2013-11-22 13:25:00,34.3,6.9,30.44,ENE,74,2.2,4.0,31,0.00,,---,0.00,VWS V14.01,2013-11-22 20:25:00,
2013-11-22 13:30:00,35.1,7.5,30.44,ENE,72,2.7,2.7,31,0.00,,---,0.00,VWS V14.01,2013-11-22 20:30:00,
2013-11-22 13:35:00,34.9,6.6,30.44,North,10,2.2,3.6,30,0.00,,---,0.00,VWS V14.01,2013-11-22 20:35:00,
2013-11-22 13:40:00,35.1,7.5,30.44,ESE,112,2.7,4.9,31,0.00,,---,0.00,VWS V14.01,2013-11-22 20:40:00,
2013-11-22 13:45:00,35.1,6.8,30.44,NE,37,0.0,0.0,30,0.00,,---,0.00,VWS V14.01,2013-11-22 20:45:00,
2013-11-22 13:50:00,34.9,6.6,30.44,North,353,0.0,0.0,30,0.00,,---,0.00,VWS V14.01,2013-11-22 20:50:00,
2013-11-22 13:55:00,35.4,7.8,30.44,ENE,69,0.0,3.6,31,0.00,,---,0.00,VWS V14.01,2013-11-22 20:55:00,
2013-11-22 14:00:00,36.0,7.6,30.44,North,357,4.0,4.0,30,0.00,,---,0.00,VWS V14.01,2013-11-22 21:00:00,
2013-11-22 14:05:00,35.1,6.8,30.44,NNE,14,0.0,4.0,30,0.00,,---,0.00,VWS V14.01,2013-11-22 21:05:00,
2013-11-22 14:10:00,34.9,6.6,30.44,North,5,0.0,4.0,30,0.00,,---,0.00,VWS V14.01,2013-11-22 21:10:00,
2013-11-22 14:15:00,34.3,6.1,30.44,North,0,3.1,3.1,30,0.00,,---,0.00,VWS V14.01,2013-11-22 21:15:00,
2013-11-22 14:20:00,33.8,5.7,30.44,North,357,3.1,4.9,30,0.00,,---,0.00,VWS V14.01,2013-11-22 21:20:00,
2013-11-22 14:25:00,33.3,5.9,30.44,North,11,3.6,4.9,31,0.00,,---,0.00,VWS V14.01,2013-11-22 21:25:00,
2013-11-22 14:30:00,33.1,5.8,30.44,North,10,3.1,3.1,31,0.00,,---,0.00,VWS V14.01,2013-11-22 21:30:00,
2013-11-22 14:35:00,33.1,5.8,30.44,NNW,336,0.0,3.6,31,0.00,,---,0.00,VWS V14.01,2013-11-22 21:35:00,
2013-11-22 14:40:00,33.4,6.1,30.44,NNW,345,2.7,3.6,31,0.00,,---,0.00,VWS V14.01,2013-11-22 21:40:00,
2013-11-22 14:45:00,33.1,5.8,30.44,North,1,3.1,3.1,31,0.00,,---,0.00,VWS V14.01,2013-11-22 21:45:00,
2013-11-22 14:50:00,33.1,5.8,30.44,North,357,0.0,4.0,31,0.00,,---,0.00,VWS V14.01,2013-11-22 21:50:00,
2013-11-22 14:55:00,33.3,5.2,30.44,NNE,14,2.2,4.9,30,0.00,,---,0.00,VWS V14.01,2013-11-22 21:55:00,
2013-11-22 15:00:00,33.3,5.9,30.44,North,357,3.6,3.6,31,0.00,,---,0.00,VWS V14.01,2013-11-22 22:00:00,
2013-11-22 15:05:00,33.1,5.8,30.44,North,353,3.1,4.0,31,0.00,,---,0.00,VWS V14.01,2013-11-22 22:05:00,
2013-11-22 15:10:00,33.4,6.1,30.41,North,357,0.0,4.0,31,0.00,,---,0.00,VWS V14.01,2013-11-22 22:10:00,
2013-11-22 15:15:00,33.6,6.2,30.41,North,4,0.0,0.0,31,0.00,,---,0.00,VWS V14.01,2013-11-22 22:15:00,
2013-11-22 15:20:00,33.1,5.8,30.41,North,357,4.0,5.4,31,0.00,,---,0.00,VWS V14.01,2013-11-22 22:20:00,
2013-11-22 15:25:00,32.7,4.7,30.44,North,6,2.7,5.4,30,0.00,,---,0.00,VWS V14.01,2013-11-22 22:25:00,
2013-11-22 15:30:00,32.7,4.7,30.44,North,4,3.6,4.0,30,0.00,,---,0.00,VWS V14.01,2013-11-22 22:30:00,
2013-11-22 15:35:00,32.4,4.4,30.44,North,3,3.1,4.0,30,0.00,,---,0.00,VWS V14.01,2013-11-22 22:35:00,
2013-11-22 15:40:00,32.2,4.2,30.41,North,6,3.1,4.0,30,0.00,,---,0.00,VWS V14.01,2013-11-22 22:40:00,
2013-11-22 15:45:00,32.2,4.2,30.41,North,6,0.0,0.0,30,0.00,,---,0.00,VWS V14.01,2013-11-22 22:45:00,
2013-11-22 15:50:00,31.8,3.9,30.41,North,2,0.0,0.0,30,0.00,,---,0.00,VWS V14.01,2013-11-22 22:50:00,
2013-11-22 15:55:00,31.5,3.6,30.41,North,0,0.0,3.1,30,0.00,,---,0.00,VWS V14.01,2013-11-22 22:55:00,
2013-11-22 16:00:00,31.3,3.5,30.41,North,357,0.0,0.0,30,0.00,,---,0.00,VWS V14.01,2013-11-22 23:00:00,
2013-11-22 16:05:00,30.6,3.5,30.41,North,357,0.0,0.0,31,0.00,,---,0.00,VWS V14.01,2013-11-22 23:05:00,
2013-11-22 16:10:00,29.5,2.6,30.41,North,357,0.0,0.0,31,0.00,,---,0.00,VWS V14.01,2013-11-22 23:10:00,
2013-11-22 16:15:00,28.6,1.8,30.41,North,357,0.0,0.0,31,0.00,,---,0.00,VWS V14.01,2013-11-22 23:15:00,
2013-11-22 16:20:00,27.9,1.2,30.41,North,357,0.0,0.0,31,0.00,,---,0.00,VWS V14.01,2013-11-22 23:20:00,
2013-11-22 16:25:00,27.3,0.7,30.41,North,357,0.0,0.0,31,0.00,,---,0.00,VWS V14.01,2013-11-22 23:25:00,
2013-11-22 16:30:00,26.6,0.7,30.41,North,357,0.0,0.0,32,0.00,,---,0.00,VWS V14.01,2013-11-22 23:30:00,
2013-11-22 16:35:00,25.9,0.1,30.41,North,357,0.0,0.0,32,0.00,,---,0.00,VWS V14.01,2013-11-22 23:35:00,
2013-11-22 16:40:00,25.3,-0.4,30.41,North,357,0.0,0.0,32,0.00,,---,0.00,VWS V14.01,2013-11-22 23:40:00,
2013-11-22 16:45:00,24.8,-0.2,30.41,North,357,0.0,0.0,33,0.00,,---,0.00,VWS V14.01,2013-11-22 23:45:00,
2013-11-22 16:50:00,24.6,-0.4,30.41,North,357,0.0,0.0,33,0.00,,---,0.00,VWS V14.01,2013-11-22 23:50:00,
2013-11-22 16:55:00,24.1,-0.9,30.44,North,357,0.0,0.0,33,0.00,,---,0.00,VWS V14.01,2013-11-22 23:55:00,
2013-11-22 17:00:00,23.5,-1.3,30.44,North,357,0.0,0.0,33,0.00,,---,0.00,VWS V14.01,2013-11-23 00:00:00,
2013-11-22 17:05:00,23.2,-1.6,30.44,North,357,0.0,0.0,33,0.00,,---,0.00,VWS V14.01,2013-11-23 00:05:00,
2013-11-22 17:10:00,22.6,-1.5,30.44,North,357,0.0,0.0,34,0.00,,---,0.00,VWS V14.01,2013-11-23 00:10:00,
2013-11-22 17:15:00,22.1,-2.0,30.44,North,357,0.0,0.0,34,0.00,,---,0.00,VWS V14.01,2013-11-23 00:15:00,
2013-11-22 17:20:00,21.9,-0.9,30.44,North,357,0.0,0.0,36,0.00,,---,0.00,VWS V14.01,2013-11-23 00:20:00,
2013-11-22 17:25:00,21.4,-1.4,30.44,North,357,0.0,0.0,36,0.00,,---,0.00,VWS V14.01,2013-11-23 00:25:00,
2013-11-22 17:30:00,21.2,-1.0,30.44,North,357,0.0,0.0,37,0.00,,---,0.00,VWS V14.01,2013-11-23 00:30:00,
2013-11-22 17:35:00,21.0,1.0,30.44,NNW,332,0.0,0.0,41,0.00,,---,0.00,VWS V14.01,2013-11-23 00:35:00,
2013-11-22 17:40:00,21.2,2.2,30.44,West,266,0.0,0.0,43,0.00,,---,0.00,VWS V14.01,2013-11-23 00:40:00,
2013-11-22 17:45:00,21.2,2.2,30.44,West,266,0.0,0.0,43,0.00,,---,0.00,VWS V14.01,2013-11-23 00:45:00,
2013-11-22 17:50:00,21.0,2.5,30.44,West,260,0.0,0.0,44,0.00,,---,0.00,VWS V14.01,2013-11-23 00:50:00,
2013-11-22 17:55:00,20.7,2.2,30.44,WSW,257,0.0,0.0,44,0.00,,---,0.00,VWS V14.01,2013-11-23 00:55:00,
2013-11-22 18:00:00,20.5,1.5,30.44,SW,214,0.0,0.0,43,0.00,,---,0.00,VWS V14.01,2013-11-23 01:00:00,
2013-11-22 18:05:00,20.1,1.2,30.44,SW,215,0.0,0.0,43,0.00,,---,0.00,VWS V14.01,2013-11-23 01:05:00,
2013-11-22 18:10:00,19.8,0.9,30.44,SW,215,0.0,0.0,43,0.00,,---,0.00,VWS V14.01,2013-11-23 01:10:00,
2013-11-22 18:15:00,19.4,1.1,30.44,SSW,212,0.0,0.0,44,0.00,,---,0.00,VWS V14.01,2013-11-23 01:15:00,
2013-11-22 18:20:00,19.0,0.7,30.44,SW,218,0.0,0.0,44,0.00,,---,0.00,VWS V14.01,2013-11-23 01:20:00,
2013-11-22 18:25:00,19.2,1.8,30.44,SW,227,0.0,0.0,46,0.00,,---,0.00,VWS V14.01,2013-11-23 01:25:00,
2013-11-22 18:30:00,19.2,1.8,30.44,WSW,252,0.0,0.0,46,0.00,,---,0.00,VWS V14.01,2013-11-23 01:30:00,
2013-11-22 18:35:00,19.2,2.3,30.44,SW,232,0.0,0.0,47,0.00,,---,0.00,VWS V14.01,2013-11-23 01:35:00,
2013-11-22 18:40:00,19.0,1.7,30.44,WSW,237,0.0,0.0,46,0.00,,---,0.00,VWS V14.01,2013-11-23 01:40:00,
2013-11-22 18:45:00,18.5,1.2,30.44,WSW,237,0.0,0.0,46,0.00,,---,0.00,VWS V14.01,2013-11-23 01:45:00,
2013-11-22 18:50:00,18.5,1.2,30.44,South,184,2.7,2.7,46,0.00,,---,0.00,VWS V14.01,2013-11-23 01:50:00,
2013-11-22 18:55:00,18.3,1.0,30.44,SW,227,0.0,4.0,46,0.00,,---,0.00,VWS V14.01,2013-11-23 01:55:00,
2013-11-22 19:00:00,18.1,0.9,30.44,SW,227,0.0,4.0,46,0.00,,---,0.00,VWS V14.01,2013-11-23 02:00:00,
2013-11-22 19:05:00,17.8,0.5,30.44,SW,229,0.0,0.0,46,0.00,,---,0.00,VWS V14.01,2013-11-23 02:05:00,
2013-11-22 19:10:00,17.6,0.3,30.44,SW,229,0.0,0.0,46,0.00,,---,0.00,VWS V14.01,2013-11-23 02:10:00,
2013-11-22 19:15:00,17.1,-0.1,30.44,SSW,200,0.0,0.0,46,0.00,,---,0.00,VWS V14.01,2013-11-23 02:15:00,
2013-11-22 19:20:00,16.9,0.2,30.44,SW,226,0.0,2.7,47,0.00,,---,0.00,VWS V14.01,2013-11-23 02:20:00,
2013-11-22 19:25:00,16.5,-0.2,30.44,SW,231,0.0,2.7,47,0.00,,---,0.00,VWS V14.01,2013-11-23 02:25:00,
2013-11-22 19:30:00,16.3,0.1,30.44,SW,231,0.0,2.7,48,0.00,,---,0.00,VWS V14.01,2013-11-23 02:30:00,
2013-11-22 19:35:00,16.3,0.5,30.44,SW,231,0.0,0.0,49,0.00,,---,0.00,VWS V14.01,2013-11-23 02:35:00,
2013-11-22 19:40:00,16.5,1.1,30.44,SW,231,0.0,0.0,50,0.00,,---,0.00,VWS V14.01,2013-11-23 02:40:00,
2013-11-22 19:45:00,16.7,1.3,30.44,SW,231,0.0,0.0,50,0.00,,---,0.00,VWS V14.01,2013-11-23 02:45:00,
2013-11-22 19:50:00,16.3,0.5,30.44,SW,231,0.0,0.0,49,0.00,,---,0.00,VWS V14.01,2013-11-23 02:50:00,
2013-11-22 19:54:00,16.2,0.4,30.44,SSW,194,2.2,3.1,49,0.00,,---,0.00,VWS V14.01,2013-11-23 02:54:00,
2013-11-22 19:59:00,16.2,0.4,30.44,SW,233,0.0,3.6,49,0.00,,---,0.00,VWS V14.01,2013-11-23 02:59:00,
2013-11-22 20:04:00,16.0,0.2,30.44,SW,234,0.0,0.0,49,0.00,,---,0.00,VWS V14.01,2013-11-23 03:04:00,
2013-11-22 20:09:00,15.6,-0.1,30.44,SW,234,0.0,0.0,49,0.00,,---,0.00,VWS V14.01,2013-11-23 03:09:00,
2013-11-22 20:14:00,15.4,-0.3,30.44,SW,234,0.0,0.0,49,0.00,,---,0.00,VWS V14.01,2013-11-23 03:14:00,
2013-11-22 20:19:00,15.4,0.1,30.44,SW,234,0.0,0.0,50,0.00,,---,0.00,VWS V14.01,2013-11-23 03:19:00,
2013-11-22 20:24:00,15.3,0.4,30.44,SW,233,0.0,0.0,51,0.00,,---,0.00,VWS V14.01,2013-11-23 03:24:00,
2013-11-22 20:29:00,15.3,0.8,30.44,SW,234,0.0,0.0,52,0.00,,---,0.00,VWS V14.01,2013-11-23 03:29:00,
2013-11-22 20:34:00,15.6,1.1,30.44,SW,234,0.0,0.0,52,0.00,,---,0.00,VWS V14.01,2013-11-23 03:34:00,
2013-11-22 20:39:00,15.4,1.0,30.44,SW,234,0.0,0.0,52,0.00,,---,0.00,VWS V14.01,2013-11-23 03:39:00,
2013-11-22 20:44:00,15.1,0.2,30.44,SW,234,0.0,0.0,51,0.00,,---,0.00,VWS V14.01,2013-11-23 03:44:00,
2013-11-22 20:49:00,14.9,0.5,30.44,WSW,239,0.0,0.0,52,0.00,,---,0.00,VWS V14.01,2013-11-23 03:49:00,
2013-11-22 20:54:00,15.1,1.0,30.44,West,276,0.0,0.0,53,0.00,,---,0.00,VWS V14.01,2013-11-23 03:54:00,
2013-11-22 20:59:00,14.7,0.3,30.44,West,276,0.0,0.0,52,0.00,,---,0.00,VWS V14.01,2013-11-23 03:59:00,
2013-11-22 21:04:00,14.9,0.9,30.44,West,275,0.0,0.0,53,0.00,,---,0.00,VWS V14.01,2013-11-23 04:04:00,
2013-11-22 21:09:00,14.9,0.9,30.44,West,268,0.0,0.0,53,0.00,,---,0.00,VWS V14.01,2013-11-23 04:09:00,
2013-11-22 21:14:00,14.5,0.5,30.44,West,268,0.0,0.0,53,0.00,,---,0.00,VWS V14.01,2013-11-23 04:14:00,
2013-11-22 21:19:00,14.5,0.9,30.44,West,268,0.0,0.0,54,0.00,,---,0.00,VWS V14.01,2013-11-23 04:19:00,
2013-11-22 21:24:00,14.7,1.1,30.44,West,268,0.0,0.0,54,0.00,,---,0.00,VWS V14.01,2013-11-23 04:24:00,
2013-11-22 21:29:00,14.9,1.7,30.44,West,269,0.0,0.0,55,0.00,,---,0.00,VWS V14.01,2013-11-23 04:29:00,
2013-11-22 21:34:00,14.9,1.7,30.44,WSW,258,0.0,0.0,55,0.00,,---,0.00,VWS V14.01,2013-11-23 04:34:00,
2013-11-22 21:39:00,14.7,1.1,30.44,SE,129,0.0,0.0,54,0.00,,---,0.00,VWS V14.01,2013-11-23 04:39:00,
2013-11-22 21:44:00,14.2,0.6,30.44,South,183,0.0,0.0,54,0.00,,---,0.00,VWS V14.01,2013-11-23 04:44:00,
2013-11-22 21:49:00,14.0,0.4,30.44,SSW,198,0.0,0.0,54,0.00,,---,0.00,VWS V14.01,2013-11-23 04:49:00,
2013-11-22 21:54:00,14.2,0.6,30.44,SW,233,2.2,3.6,54,0.00,,---,0.00,VWS V14.01,2013-11-23 04:54:00,
2013-11-22 21:59:00,14.4,0.8,30.44,SW,233,0.0,3.6,54,0.00,,---,0.00,VWS V14.01,2013-11-23 04:59:00,
2013-11-22 22:01:00,14.4,0.8,30.44,SW,233,0.0,0.0,54,0.00,,---,0.00,VWS V14.01,2013-11-23 05:01:00,
2013-11-22 22:06:00,14.2,0.6,30.44,SW,233,0.0,0.0,54,0.00,,---,0.00,VWS V14.01,2013-11-23 05:06:00,
2013-11-22 22:11:00,14.0,0.4,30.44,SW,233,0.0,0.0,54,0.00,,---,0.00,VWS V14.01,2013-11-23 05:11:00,
2013-11-22 22:16:00,13.6,0.1,30.44,SW,233,0.0,0.0,54,0.00,,---,0.00,VWS V14.01,2013-11-23 05:16:00,
2013-11-22 22:21:00,13.3,-0.2,30.44,SW,233,0.0,0.0,54,0.00,,---,0.00,VWS V14.01,2013-11-23 05:21:00,
2013-11-22 22:26:00,12.9,-0.6,30.44,SW,233,0.0,0.0,54,0.00,,---,0.00,VWS V14.01,2013-11-23 05:26:00,
2013-11-22 22:31:00,12.9,-0.6,30.44,WSW,237,0.0,0.0,54,0.00,,---,0.00,VWS V14.01,2013-11-23 05:31:00,
2013-11-22 22:36:00,12.9,-0.6,30.44,WSW,237,0.0,0.0,54,0.00,,---,0.00,VWS V14.01,2013-11-23 05:36:00,
2013-11-22 22:41:00,12.9,-0.6,30.44,WSW,237,0.0,0.0,54,0.00,,---,0.00,VWS V14.01,2013-11-23 05:41:00,
2013-11-22 22:46:00,12.9,-0.6,30.44,WSW,237,0.0,0.0,54,0.00,,---,0.00,VWS V14.01,2013-11-23 05:46:00,
2013-11-22 22:51:00,12.7,-0.8,30.44,WSW,237,0.0,0.0,54,0.00,,---,0.00,VWS V14.01,2013-11-23 05:51:00,
2013-11-22 22:56:00,12.7,-0.8,30.44,WSW,237,0.0,0.0,54,0.00,,---,0.00,VWS V14.01,2013-11-23 05:56:00,
2013-11-22 23:01:00,12.7,-0.8,30.44,WSW,237,0.0,0.0,54,0.00,,---,0.00,VWS V14.01,2013-11-23 06:01:00,
2013-11-22 23:06:00,12.6,-0.9,30.44,WSW,237,0.0,0.0,54,0.00,,---,0.00,VWS V14.01,2013-11-23 06:06:00,
2013-11-22 23:11:00,12.6,-0.9,30.44,SW,226,0.0,0.0,54,0.00,,---,0.00,VWS V14.01,2013-11-23 06:11:00,
2013-11-22 23:16:00,12.4,-1.1,30.44,SW,226,0.0,0.0,54,0.00,,---,0.00,VWS V14.01,2013-11-23 06:16:00,
2013-11-22 23:21:00,12.4,-1.1,30.44,SW,226,0.0,0.0,54,0.00,,---,0.00,VWS V14.01,2013-11-23 06:21:00,
2013-11-22 23:26:00,12.6,-0.9,30.44,SW,226,0.0,0.0,54,0.00,,---,0.00,VWS V14.01,2013-11-23 06:26:00,
2013-11-22 23:31:00,12.9,-0.6,30.44,SW,226,0.0,0.0,54,0.00,,---,0.00,VWS V14.01,2013-11-23 06:31:00,
2013-11-22 23:36:00,12.7,-0.8,30.44,SW,226,0.0,0.0,54,0.00,,---,0.00,VWS V14.01,2013-11-23 06:36:00,
2013-11-22 23:41:00,12.7,-0.8,30.44,SW,226,0.0,0.0,54,0.00,,---,0.00,VWS V14.01,2013-11-23 06:41:00,
2013-11-22 23:46:00,12.6,-0.9,30.44,SW,226,0.0,0.0,54,0.00,,---,0.00,VWS V14.01,2013-11-23 06:46:00,
2013-11-22 23:51:00,12.6,-0.9,30.44,SW,226,0.0,0.0,54,0.00,,---,0.00,VWS V14.01,2013-11-23 06:51:00,
2013-11-22 23:56:00,12.4,-1.1,30.44,SW,226,0.0,0.0,54,0.00,,---,0.00,VWS V14.01,2013-11-23 06:56:00,